K1KSR Weather Reports


time (UTC)temp
F
wind
direction
speed
knots
gust
knots
rain 1hr
in
rain 24hr
in
rain mn
in
humidity
%
barometer
mb
20260508050023 43 45 0.0 1.7 0.00 0.02 0.00 57 1006.4
20260508045509 42 67 0.0 1.7 0.00 0.03 0.00 58 1006.3
20260508045009 42 297 0.0 1.7 0.00 0.06 0.00 59 1006.3
20260508044526 42 300 0.0 1.7 0.00 0.08 0.00 60 1006.3
20260508044009 42 5 0.0 1.7 0.00 0.09 0.00 58 1006.3
20260508043506 42 5 0.0 1.7 0.00 0.09 0.00 64 1006.2
20260508043016 43 9 0.0 1.7 0.00 0.10 0.00 62 1006.3
20260508042508 43 45 0.0 1.7 0.00 0.11 0.00 56 1006.4
20260508042006 43 21 0.0 1.7 0.00 0.13 0.00 55 1006.4
20260508041520 44 50 0.0 1.7 0.00 0.14 0.00 55 1006.5
20260508041008 44 57 0.0 3.5 0.00 0.15 0.00 56 1006.4
20260508040509 44 46 0.0 3.5 0.00 0.16 0.00 55 1006.4
20260508040030 43 76 0.9 2.6 0.00 0.16 0.00 56 1006.4
20260508035506 43 5 0.0 3.5 0.00 0.16 0.16 59 1006.4
20260508035009 42 79 0.0 3.5 0.00 0.16 0.16 58 1006.4
20260508034535 41 60 0.0 1.7 0.00 0.17 0.16 62 1006.4
20260508034013 41 21 0.0 1.7 0.00 0.18 0.16 65 1006.5
20260508033509 42 281 0.0 1.7 0.00 0.19 0.16 63 1006.6
20260508033032 42 317 0.0 1.7 0.00 0.19 0.16 60 1006.7
20260508032512 42 16 0.0 0.0 0.00 0.19 0.16 57 1006.6
20260508032005 43 16 0.0 0.0 0.00 0.19 0.16 59 1006.5
20260508031517 43 45 0.0 0.0 0.00 0.19 0.16 59 1006.5
20260508031008 43 46 0.0 0.0 0.00 0.19 0.16 56 1006.6
20260508030506 43 46 0.0 0.0 0.00 0.19 0.16 57 1006.6
20260508030020 44 48 0.0 1.7 0.00 0.20 0.16 57 1006.6
20260508025508 44 46 0.0 1.7 0.00 0.20 0.16 54 1006.6
20260508025009 44 352 0.0 0.9 0.00 0.20 0.16 56 1006.4
20260508024526 44 30 0.0 0.9 0.00 0.20 0.16 54 1006.4
20260508024009 44 342 0.0 0.0 0.00 0.20 0.16 54 1006.4
20260508023510 45 342 0.0 0.0 0.00 0.20 0.16 53 1006.4
20260508023026 45 347 0.0 0.0 0.00 0.20 0.16 52 1006.4
20260508022510 46 347 0.0 0.0 0.00 0.20 0.16 51 1006.3
20260508022011 46 347 0.0 0.0 0.00 0.21 0.16 49 1006.2
20260508021527 47 347 0.0 1.7 0.00 0.21 0.16 48 1006.2
20260508021012 47 347 0.0 1.7 0.00 0.22 0.16 47 1006.2
20260508020503 47 347 0.0 1.7 0.00 0.22 0.16 48 1006.1
20260508020016 48 32 0.0 1.7 0.00 0.22 0.16 47 1006.0
20260508015509 48 352 0.0 1.7 0.00 0.23 0.16 47 1006.1
20260508015009 48 42 0.9 5.2 0.00 0.24 0.16 47 1006.2
20260508014527 48 38 0.9 5.2 0.00 0.24 0.16 47 1006.1
20260508014011 48 17 0.9 2.6 0.00 0.25 0.16 46 1006.1
20260508013511 49 11 0.9 2.6 0.00 0.25 0.16 47 1006.1
20260508013023 49 11 0.9 2.6 0.00 0.25 0.16 46 1006.1
20260508012515 49 14 0.9 2.6 0.00 0.25 0.16 47 1006.0
20260508012012 49 13 0.9 1.7 0.00 0.25 0.16 45 1006.1
20260508011529 49 352 0.9 3.5 0.00 0.26 0.16 45 1006.0
20260508011011 50 360 1.7 4.3 0.00 0.26 0.16 45 1006.0
20260508010511 50 10 1.7 4.3 0.00 0.26 0.16 44 1005.9
20260508010040 50 331 1.7 4.3 0.00 0.26 0.16 46 1005.9
20260508005512 50 5 0.9 3.5 0.00 0.26 0.16 46 1005.9
20260508005005 50 5 0.9 3.5 0.00 0.26 0.16 44 1005.8
20260508004525 50 9 0.9 7.0 0.00 0.26 0.16 45 1005.8
20260508004010 51 16 1.7 7.0 0.00 0.26 0.16 45 1005.6
20260508003507 51 22 1.7 5.2 0.00 0.26 0.16 46 1005.6
20260508003022 51 9 1.7 5.2 0.00 0.26 0.16 45 1005.6
20260508002510 51 322 1.7 7.8 0.00 0.26 0.16 44 1005.5
20260508002004 52 9 1.7 7.8 0.00 0.26 0.16 44 1005.4
20260508001506 52 28 1.7 2.6 0.00 0.26 0.16 45 1005.4
20260508001002 52 27 0.9 3.5 0.00 0.26 0.16 44 1005.3
20260508000503 52 20 1.7 3.5 0.00 0.26 0.16 43 1005.2
20260508000011 53 38 1.7 3.5 0.00 0.26 0.16 43 1005.1
20260507235507 53 38 0.9 2.6 0.00 0.26 0.16 41 1005.0
20260507235003 54 352 0.0 3.5 0.00 0.26 0.16 41 1004.9
20260507234516 54 31 0.9 3.5 0.00 0.26 0.16 40 1004.8
20260507234006 54 333 0.9 4.3 0.00 0.26 0.16 39 1004.6
20260507233507 54 47 0.9 4.3 0.00 0.27 0.16 40 1004.6
20260507233022 55 319 0.9 4.3 0.00 0.27 0.16 39 1004.5
20260507232503 55 327 0.9 3.5 0.00 0.27 0.16 40 1004.5
20260507232004 55 19 0.0 3.5 0.00 0.27 0.16 40 1004.4
20260507231507 56 32 0.9 4.3 0.00 0.27 0.16 38 1004.3
20260507231004 56 352 2.6 4.3 0.00 0.27 0.16 37 1004.2
20260507230504 56 16 0.9 2.6 0.00 0.27 0.16 37 1004.0
20260507230011 56 53 1.7 4.3 0.00 0.27 0.16 37 1003.9
20260507225506 56 42 0.9 4.3 0.00 0.27 0.16 38 1003.9
20260507225003 57 38 1.7 4.3 0.00 0.27 0.16 37 1003.8
20260507224516 57 327 1.7 6.1 0.00 0.27 0.16 36 1003.7
20260507224007 57 35 1.7 13.9 0.00 0.27 0.16 35 1003.6
20260507223510 57 321 0.9 13.9 0.00 0.27 0.16 37 1003.5
20260507223020 58 32 1.7 5.2 0.00 0.27 0.16 36 1003.5
20260507222508 58 351 0.9 5.2 0.00 0.27 0.16 35 1003.4
20260507222009 59 352 1.7 4.3 0.00 0.28 0.16 34 1003.3
20260507221523 60 302 0.9 5.2 0.00 0.28 0.16 34 1003.3
20260507221003 60 28 1.7 7.8 0.00 0.28 0.16 32 1003.2
20260507220505 60 308 1.7 8.7 0.00 0.29 0.16 34 1003.2
20260507220009 60 238 1.7 8.7 0.00 0.29 0.16 33 1003.1
20260507215504 60 344 0.9 4.3 0.00 0.29 0.16 34 1003.2
20260507215004 60 88 1.7 7.8 0.00 0.30 0.16 35 1003.1
20260507214519 61 50 2.6 7.8 0.00 0.32 0.16 32 1003.1
20260507214003 61 307 2.6 7.8 0.00 0.36 0.16 35 1003.1
20260507213506 61 195 1.7 5.2 0.00 0.37 0.16 33 1003.1
20260507213017 61 53 1.7 5.2 0.00 0.39 0.16 33 1003.1
20260507212506 61 335 1.7 9.6 0.00 0.40 0.16 35 1003.1
20260507212008 61 343 2.6 9.6 0.00 0.42 0.16 32 1003.0
20260507211534 61 360 2.6 8.7 0.00 0.44 0.16 33 1003.0
20260507211007 62 314 2.6 9.6 0.00 0.46 0.16 32 1003.1
20260507210507 62 317 4.3 9.6 0.00 0.47 0.16 32 1003.0
20260507210026 62 198 0.9 9.6 0.00 0.48 0.16 33 1003.0
20260507205504 62 211 2.6 10.4 0.00 0.48 0.16 31 1002.9
20260507205004 62 277 4.3 10.4 0.00 0.49 0.16 31 1002.9
20260507204510 62 345 1.7 10.4 0.00 0.50 0.16 33 1002.8
20260507204005 62 162 3.5 11.3 0.00 0.50 0.16 33 1002.7
20260507203505 62 223 4.3 11.3 0.00 0.51 0.16 33 1002.7
20260507203020 62 209 3.5 10.4 0.00 0.54 0.16 37 1002.8
20260507202506 62 279 3.5 10.4 0.00 0.58 0.16 36 1002.8
20260507202004 62 352 1.7 13.9 0.00 0.62 0.16 40 1002.6
20260507201522 61 294 1.7 13.9 0.00 0.65 0.16 41 1002.6
20260507201007 62 215 1.7 7.8 0.00 0.67 0.16 41 1002.8
20260507200510 62 275 1.7 7.8 0.00 0.68 0.16 42 1002.7
20260507200025 62 21 3.5 7.8 0.00 0.69 0.16 43 1002.8
20260507195509 61 346 1.7 6.1 0.00 0.70 0.16 46 1002.8
20260507195012 60 215 1.7 7.8 0.00 0.74 0.16 47 1002.7
20260507194507 60 89 1.7 11.3 0.00 0.77 0.16 48 1002.9
20260507194001 59 282 2.6 11.3 0.00 0.79 0.16 48 1002.9
20260507193506 60 350 2.6 8.7 0.00 0.79 0.16 48 1002.8
20260507193012 60 256 1.7 7.0 0.00 0.79 0.16 48 1002.8
20260507192509 60 178 0.9 7.0 0.00 0.80 0.16 48 1002.8
20260507192009 60 240 0.9 8.7 0.00 0.81 0.16 48 1002.8
20260507191516 60 330 2.6 9.6 0.00 0.82 0.16 47 1002.8
20260507191007 60 181 4.3 9.6 0.00 0.83 0.16 46 1002.8
20260507190505 60 34 1.7 5.2 0.00 0.84 0.16 53 1002.7
20260507190022 61 219 0.9 5.2 0.00 0.84 0.16 52 1002.8
20260507185507 60 277 0.9 7.0 0.00 0.85 0.16 46 1002.8
20260507185008 61 346 0.9 7.0 0.00 0.86 0.16 45 1002.8
20260507184526 61 311 0.9 6.1 0.00 0.86 0.16 45 1002.8
20260507184007 62 9 1.7 6.1 0.00 0.86 0.16 44 1002.8
20260507183512 63 257 2.6 5.2 0.00 0.86 0.16 44 1002.8
20260507183019 63 121 0.0 5.2 0.00 0.86 0.16 44 1002.8
20260507182506 62 21 1.7 5.2 0.00 0.86 0.16 46 1002.9
20260507182003 61 300 1.7 4.3 0.00 0.86 0.16 44 1002.9
20260507181515 61 210 0.9 5.2 0.00 0.86 0.16 44 1003.0
20260507181009 61 268 1.7 5.2 0.00 0.86 0.16 46 1003.1
20260507180506 60 245 1.7 5.2 0.00 0.86 0.16 47 1003.2
20260507180020 60 270 0.0 2.6 0.00 0.86 0.16 49 1003.3
20260507175516 60 352 1.7 2.6 0.00 0.86 0.16 49 1003.3
20260507175006 60 319 0.0 2.6 0.00 0.86 0.16 51 1003.4
20260507174526 60 360 0.0 4.3 0.00 0.86 0.16 51 1003.3
20260507174008 59 70 1.7 5.2 0.00 0.86 0.16 53 1003.4
20260507173507 59 223 0.9 5.2 0.00 0.86 0.16 49 1003.4
20260507173024 59 246 0.0 3.5 0.00 0.86 0.16 52 1003.5
20260507172510 59 317 0.0 5.2 0.00 0.86 0.16 49 1003.5
20260507172002 59 200 2.6 5.2 0.00 0.86 0.16 50 1003.5
20260507171510 60 246 0.9 4.3 0.00 0.86 0.16 50 1003.5
20260507171006 60 223 0.9 6.1 0.00 0.86 0.16 48 1003.6
20260507170511 60 10 0.9 8.7 0.00 0.86 0.16 52 1003.5
20260507170018 60 238 1.7 8.7 0.00 0.86 0.16 52 1003.6
20260507165509 60 236 2.6 7.0 0.00 0.86 0.16 51 1003.5
20260507165009 60 319 0.0 7.8 0.00 0.86 0.16 50 1003.6
20260507164527 60 133 2.6 7.8 0.00 0.86 0.16 51 1003.7
20260507164010 59 200 3.5 7.8 0.00 0.86 0.16 51 1003.7
20260507163509 59 239 2.6 7.0 0.00 0.86 0.16 51 1003.8
20260507163024 59 258 0.9 3.5 0.00 0.86 0.16 51 1003.8
20260507162507 59 10 1.7 3.5 0.00 0.86 0.16 52 1003.8
20260507162012 59 56 0.0 6.1 0.00 0.86 0.16 51 1003.9
20260507161539 59 219 2.6 7.0 0.00 0.86 0.16 50 1004.0
20260507161011 59 250 2.6 7.0 0.00 0.86 0.16 52 1004.0
20260507160503 59 180 1.7 7.8 0.00 0.86 0.16 50 1004.2
20260507160034 59 252 1.7 7.8 0.00 0.86 0.16 51 1004.4
20260507155508 59 313 1.7 5.2 0.00 0.86 0.16 53 1004.4
20260507155009 59 231 1.7 7.0 0.00 0.86 0.16 57 1004.4
20260507154523 58 292 2.6 7.0 0.00 0.86 0.16 54 1004.5
20260507154010 58 197 0.0 4.3 0.00 0.86 0.16 58 1004.5
20260507153512 58 279 1.7 4.3 0.00 0.86 0.16 60 1004.5
20260507153024 58 352 1.7 4.3 0.00 0.86 0.16 59 1004.5
20260507152509 58 196 0.9 2.6 0.00 0.86 0.16 60 1004.5
20260507152007 57 301 0.0 5.2 0.00 0.86 0.16 58 1004.6
20260507151528 57 206 1.7 5.2 0.00 0.86 0.16 60 1004.6
20260507151013 58 213 0.9 4.3 0.00 0.86 0.16 60 1004.6
20260507150513 58 38 0.9 3.5 0.00 0.86 0.16 61 1004.6
20260507150031 57 338 0.9 6.1 0.00 0.86 0.16 59 1004.6
20260507145507 57 136 0.0 7.8 0.00 0.86 0.16 60 1004.6
20260507145006 57 282 3.5 7.8 0.00 0.86 0.16 62 1004.7
20260507144526 57 344 0.9 4.3 0.00 0.86 0.16 61 1004.7
20260507144008 57 220 1.7 4.3 0.00 0.86 0.16 58 1004.8
20260507143508 57 298 0.9 2.6 0.00 0.86 0.16 62 1004.9
20260507143025 57 327 0.0 3.5 0.00 0.86 0.16 64 1004.9
20260507142509 56 36 1.7 3.5 0.00 0.86 0.16 62 1005.0
20260507142008 56 323 0.9 3.5 0.00 0.86 0.16 62 1005.0
20260507141525 56 304 0.0 5.2 0.00 0.86 0.16 68 1005.1
20260507141011 55 234 0.0 5.2 0.00 0.86 0.16 69 1005.1
20260507140508 54 321 0.9 5.2 0.00 0.86 0.16 65 1005.1
20260507140025 54 211 2.6 5.2 0.00 0.86 0.16 67 1005.2
20260507135508 54 259 1.7 4.3 0.00 0.86 0.16 69 1005.2
20260507135009 54 324 0.9 1.7 0.00 0.86 0.16 70 1005.2
20260507134528 54 92 0.9 2.6 0.00 0.86 0.16 73 1005.2
20260507134007 53 226 0.9 2.6 0.00 0.86 0.16 71 1005.0
20260507133508 53 79 0.9 2.6 0.00 0.86 0.16 71 1005.1
20260507133021 53 140 0.0 2.6 0.00 0.86 0.16 73 1005.1
20260507132509 52 239 0.0 2.6 0.00 0.86 0.16 76 1005.2
20260507132010 52 300 0.0 2.6 0.00 0.86 0.16 76 1005.2
20260507131526 51 171 0.0 2.6 0.00 0.86 0.16 75 1005.3
20260507131010 51 55 0.9 5.2 0.00 0.86 0.16 77 1005.3
20260507130507 51 71 0.0 5.2 0.00 0.86 0.16 77 1005.3
20260507130028 51 210 1.7 3.5 0.00 0.86 0.16 75 1005.5
20260507125510 50 288 0.9 3.5 0.00 0.86 0.16 78 1005.5
20260507125008 50 344 0.9 3.5 0.00 0.86 0.16 80 1005.5
20260507124544 50 244 0.9 2.6 0.00 0.86 0.16 81 1005.4
20260507124012 50 43 0.0 1.7 0.00 0.86 0.16 80 1005.4
20260507123510 50 195 0.0 2.6 0.00 0.86 0.16 79 1005.5
20260507123018 50 49 0.9 2.6 0.00 0.86 0.16 81 1005.5
20260507122508 49 317 0.9 4.3 0.00 0.86 0.16 83 1005.5
20260507122009 49 346 0.9 4.3 0.00 0.86 0.16 82 1005.6
20260507121520 49 325 0.0 2.6 0.00 0.86 0.16 85 1005.5
20260507121003 49 342 0.0 1.7 0.00 0.86 0.16 86 1005.5
20260507120508 48 51 0.9 1.7 0.00 0.86 0.16 86 1005.6
20260507120006 48 344 0.9 1.7 0.00 0.86 0.16 88 1005.6
20260507115504 47 301 0.9 1.7 0.00 0.86 0.16 89 1005.4
20260507115004 47 303 0.0 2.6 0.00 0.86 0.16 91 1005.7
20260507114509 46 211 0.0 2.6 0.00 0.86 0.16 91 1005.8
20260507114004 46 288 0.0 1.7 0.00 0.86 0.16 92 1005.8
20260507113503 46 213 0.0 1.7 0.00 0.86 0.16 93 1005.9
20260507113019 46 244 0.0 1.7 0.00 0.86 0.16 94 1006.1
20260507112507 45 159 0.0 0.0 0.00 0.86 0.16 94 1005.8
20260507112008 45 124 0.0 1.7 0.00 0.86 0.16 94 1005.6
20260507111519 45 124 0.0 2.6 0.00 0.86 0.16 94 1005.8
20260507111010 45 186 0.0 2.6 0.00 0.86 0.16 94 1006.2
20260507110506 45 196 0.9 1.7 0.00 0.86 0.16 95 1006.4
20260507110009 45 285 0.0 1.7 0.00 0.86 0.16 95 1005.9
20260507105502 45 286 0.0 1.7 0.00 0.86 0.16 96 1006.0
20260507105003 45 88 0.0 1.7 0.00 0.86 0.16 96 1005.8
20260507104509 45 216 0.0 1.7 0.00 0.86 0.16 96 1006.0
20260507104004 45 43 0.0 1.7 0.00 0.86 0.16 96 1005.3
20260507103506 45 323 0.0 1.7 0.00 0.86 0.16 96 1005.8
20260507103013 45 277 0.0 2.6 0.00 0.86 0.16 96 1005.8
20260507102506 45 181 0.0 1.7 0.00 0.86 0.16 96 1005.8
20260507102008 45 193 0.0 1.7 0.00 0.86 0.16 96 1005.7
20260507101516 45 5 0.0 1.7 0.00 0.86 0.16 96 1005.3
20260507101008 45 315 0.0 0.0 0.00 0.86 0.16 96 1005.1
20260507100508 45 360 0.0 0.0 0.00 0.86 0.16 96 1005.1
20260507100025 45 360 0.0 0.0 0.00 0.86 0.16 96 1005.3
20260507095510 45 360 0.0 0.0 0.00 0.86 0.16 95 1005.2
20260507095013 45 360 0.0 0.0 0.00 0.86 0.16 95 1004.9
20260507094507 45 360 0.0 0.0 0.00 0.86 0.16 95 1005.1
20260507094002 45 360 0.0 0.0 0.00 0.86 0.16 96 1005.0
20260507093503 45 360 0.0 1.7 0.00 0.86 0.16 96 1005.1
20260507093018 45 360 0.0 1.7 0.00 0.86 0.16 95 1005.0
20260507092504 46 360 0.0 1.7 0.00 0.86 0.16 95 1005.3
20260507092003 46 360 0.0 1.7 0.00 0.86 0.16 96 1005.2
20260507091519 46 9 0.0 1.7 0.00 0.86 0.16 96 1005.2
20260507091011 46 5 0.0 1.7 0.00 0.86 0.16 96 1005.0
20260507090510 46 274 0.0 1.7 0.00 0.86 0.16 96 1005.5
20260507090022 46 20 0.0 1.7 0.00 0.86 0.16 96 1005.3
20260507085508 46 20 0.0 1.7 0.00 0.86 0.16 96 1005.1
20260507085009 46 20 0.0 0.0 0.01 0.86 0.16 96 1005.1
20260507084525 46 20 0.0 0.0 0.01 0.86 0.16 96 1005.2
20260507084008 46 20 0.0 0.0 0.01 0.86 0.16 96 1005.3
20260507083509 47 20 0.0 0.0 0.01 0.86 0.16 96 1005.4
20260507083008 47 20 0.0 0.9 0.01 0.86 0.16 96 1005.0
20260507082503 47 20 0.0 1.7 0.01 0.86 0.16 96 1005.1
20260507082006 47 9 0.0 1.7 0.01 0.86 0.16 96 1005.1
20260507081512 47 9 0.0 1.7 0.01 0.86 0.16 96 1005.1
20260507081004 47 9 0.0 1.7 0.01 0.86 0.16 96 1004.9
20260507080505 47 20 0.0 1.7 0.01 0.86 0.16 96 1005.0
20260507080020 47 344 0.0 1.7 0.01 0.86 0.16 96 1005.0
20260507075507 47 331 0.0 1.7 0.01 0.86 0.16 96 1005.0
20260507075011 47 333 0.0 1.7 0.00 0.85 0.15 96 1004.9
20260507074524 47 55 0.0 1.7 0.00 0.85 0.15 96 1004.9
20260507074007 47 55 0.0 1.7 0.00 0.85 0.15 96 1004.9
20260507073509 47 71 0.0 1.7 0.00 0.85 0.15 95 1005.0
20260507073029 47 13 0.0 2.6 0.00 0.85 0.15 95 1004.8
20260507072510 48 13 0.0 2.6 0.00 0.85 0.15 95 1004.8
20260507072011 48 291 0.9 1.7 0.00 0.85 0.15 95 1004.8
20260507071511 48 18 0.0 1.7 0.00 0.85 0.15 95 1004.6
20260507071005 48 360 0.0 1.7 0.00 0.85 0.15 95 1004.7
20260507070504 48 65 0.0 1.7 0.00 0.85 0.15 95 1004.6
20260507070014 48 360 0.0 1.7 0.00 0.85 0.15 95 1004.5
20260507065505 48 336 0.0 1.7 0.00 0.85 0.15 96 1004.4
20260507065005 48 347 0.0 1.7 0.00 0.85 0.15 96 1004.1
20260507064523 48 340 0.0 1.7 0.00 0.85 0.15 96 1004.1
20260507064008 49 347 0.0 1.7 0.00 0.85 0.15 95 1004.0
20260507063508 49 325 0.0 1.7 0.00 0.85 0.15 95 1004.2
20260507063036 49 23 0.0 1.7 0.00 0.85 0.15 95 1004.0
20260507062509 49 23 0.0 1.7 0.00 0.85 0.15 95 1004.0
20260507062011 49 360 0.0 1.7 0.00 0.85 0.15 96 1004.0
20260507061531 49 319 0.0 2.6 0.00 0.85 0.15 96 1003.9
20260507061009 49 319 0.0 2.6 0.01 0.85 0.15 95 1003.8
20260507060509 49 15 0.9 2.6 0.01 0.85 0.15 95 1003.5
20260507060027 49 19 1.7 2.6 0.01 0.85 0.15 95 1003.6
20260507055504 49 5 0.9 2.6 0.02 0.85 0.15 95 1003.7
20260507055004 50 25 0.9 2.6 0.05 0.85 0.15 95 1003.7
20260507054517 50 15 0.9 1.7 0.07 0.85 0.15 95 1003.9
20260507054005 50 346 0.9 3.5 0.08 0.85 0.15 95 1003.8
20260507053507 50 30 0.9 3.5 0.08 0.85 0.15 95 1003.7
20260507053022 50 5 1.7 2.6 0.09 0.85 0.15 96 1003.8
20260507052509 51 352 1.7 3.5 0.10 0.85 0.15 96 1003.8
20260507052009 51 9 1.7 3.5 0.12 0.85 0.15 96 1004.2
20260507051526 51 333 0.9 2.6 0.13 0.85 0.15 96 1004.1
20260507051009 51 20 0.9 2.6 0.13 0.84 0.14 96 1004.2
20260507050508 51 23 0.9 2.6 0.14 0.84 0.14 96 1004.1